timestamp,wind_dir_avg,wind_spd_avg,wind_spd_max_dir,wind_spd_gust,battery_voltage,lat,long
2022-09-24 00:04:01+00:00,149.0,8.08,148.0,8.95,12.57,47.59359,-54.27349
2022-09-24 00:14:00+00:00,155.0,9.56,158.0,10.46,12.57,47.59359,-54.27349
2022-09-24 00:24:00+00:00,163.0,8.88,162.0,10.37,12.57,47.59359,-54.27349
2022-09-24 00:34:00+00:00,164.0,10.59,166.0,12.58,12.57,47.59359,-54.27349
2022-09-24 00:44:00+00:00,161.0,11.77,165.0,13.92,12.57,47.59359,-54.27349
2022-09-24 00:54:00+00:00,156.0,10.47,157.0,11.62,12.57,47.59359,-54.27349
2022-09-24 01:04:00+00:00,158.0,10.57,157.0,11.71,12.57,47.59359,-54.27349
2022-09-24 01:14:00+00:00,160.0,10.26,164.0,11.74,12.57,47.59359,-54.27349
2022-09-24 01:24:00+00:00,164.0,10.92,166.0,12.65,12.57,47.59359,-54.27349
2022-09-24 01:34:00+00:00,159.0,9.49,159.0,10.39,12.57,47.59359,-54.27349
2022-09-24 01:44:00+00:00,160.0,7.94,154.0,9.25,12.57,47.59359,-54.27349
2022-09-24 01:54:00+00:00,156.0,8.13,156.0,9.59,12.57,47.59359,-54.27349
2022-09-24 02:04:00+00:00,155.0,8.52,160.0,9.89,12.57,47.59359,-54.27349
2022-09-24 02:14:00+00:00,159.0,8.3,157.0,10.11,12.57,47.59359,-54.27349
2022-09-24 02:24:00+00:00,163.0,7.82,159.0,9.41,12.57,47.59359,-54.27349
2022-09-24 02:34:00+00:00,161.0,7.36,161.0,8.63,12.57,47.59359,-54.27349
2022-09-24 02:44:00+00:00,159.0,7.14,158.0,8.29,12.57,47.59359,-54.27349
2022-09-24 02:54:00+00:00,147.0,6.13,157.0,7.83,12.57,47.59359,-54.27349
2022-09-24 03:04:00+00:00,153.0,7.2,152.0,8.08,12.57,47.59359,-54.27349
2022-09-24 03:14:01+00:00,146.0,4.47,145.0,6.63,12.57,47.59359,-54.27349
2022-09-24 03:24:01+00:00,139.0,5.21,138.0,7.94,12.57,47.59359,-54.27349
2022-09-24 03:34:01+00:00,145.0,7.2,147.0,8.3,12.57,47.59359,-54.27349
2022-09-24 03:44:01+00:00,141.0,8.26,148.0,11.21,12.57,47.59359,-54.27349
2022-09-24 03:54:01+00:00,148.0,11.24,151.0,13.22,12.57,47.59359,-54.27349
2022-09-24 04:04:01+00:00,143.0,10.62,143.0,12.94,12.57,47.59359,-54.27349
2022-09-24 04:14:00+00:00,148.0,10.27,150.0,11.91,12.49,47.59359,-54.27349
2022-09-24 04:24:00+00:00,150.0,10.41,154.0,12.29,12.49,47.59359,-54.27349
2022-09-24 04:34:00+00:00,154.0,11.95,160.0,13.82,12.49,47.59359,-54.27349
2022-09-24 04:44:00+00:00,147.0,12.46,144.0,14.65,12.49,47.59359,-54.27349
2022-09-24 04:54:00+00:00,151.0,12.43,143.0,15.41,12.49,47.59359,-54.27349
2022-09-24 05:04:00+00:00,152.0,14.08,146.0,17.22,12.49,47.59359,-54.27349
2022-09-24 05:14:01+00:00,153.0,13.15,149.0,15.01,12.49,47.59359,-54.27349
2022-09-24 05:24:01+00:00,153.0,12.53,147.0,15.1,12.49,47.59359,-54.27349
2022-09-24 05:34:01+00:00,153.0,13.5,147.0,16.86,12.49,47.59359,-54.27349
2022-09-24 05:44:01+00:00,145.0,14.47,143.0,16.57,12.49,47.59359,-54.27349
2022-09-24 05:54:01+00:00,147.0,14.51,146.0,18.19,12.49,47.59359,-54.27349
2022-09-24 06:04:01+00:00,154.0,14.47,161.0,16.84,12.49,47.59359,-54.27349
2022-09-24 06:14:01+00:00,161.0,16.62,151.0,19.93,12.49,47.59359,-54.27349
2022-09-24 06:24:01+00:00,163.0,17.78,166.0,20.66,12.49,47.59359,-54.27349
2022-09-24 06:34:01+00:00,167.0,19.14,170.0,22.3,12.49,47.59359,-54.27349
2022-09-24 06:44:01+00:00,163.0,14.21,170.0,16.44,12.49,47.59359,-54.27349
2022-09-24 06:54:01+00:00,170.0,17.19,177.0,20.25,12.49,47.59359,-54.27349
2022-09-24 07:04:01+00:00,168.0,17.45,172.0,20.13,12.49,47.59359,-54.27349
2022-09-24 07:14:01+00:00,173.0,17.51,178.0,20.4,12.49,47.59359,-54.27349
2022-09-24 07:24:01+00:00,175.0,16.18,174.0,20.58,12.49,47.59359,-54.27349
2022-09-24 07:34:01+00:00,179.0,16.78,195.0,21.64,12.49,47.59359,-54.27349
2022-09-24 07:44:01+00:00,177.0,19.14,178.0,22.79,12.49,47.59359,-54.27349
2022-09-24 07:54:01+00:00,177.0,17.36,172.0,21.43,12.49,47.59359,-54.27349
2022-09-24 08:04:01+00:00,177.0,17.63,190.0,20.51,12.49,47.59359,-54.27349
2022-09-24 08:14:00+00:00,174.0,18.28,178.0,20.83,12.41,47.59359,-54.27349
2022-09-24 08:24:00+00:00,177.0,19.56,193.0,22.08,12.41,47.59359,-54.27349
2022-09-24 08:34:00+00:00,175.0,17.16,176.0,19.91,12.41,47.59359,-54.27349
2022-09-24 08:44:00+00:00,173.0,16.12,175.0,19.57,12.41,47.59359,-54.27349
2022-09-24 08:54:00+00:00,176.0,16.73,177.0,19.61,12.41,47.59359,-54.27349
2022-09-24 09:04:00+00:00,178.0,15.13,177.0,16.71,12.41,47.59359,-54.27349
2022-09-24 09:14:01+00:00,179.0,14.92,170.0,20.01,12.41,47.59359,-54.27349
2022-09-24 09:24:01+00:00,177.0,15.46,177.0,18.31,12.41,47.59359,-54.27349
2022-09-24 09:34:01+00:00,183.0,16.62,197.0,20.66,12.41,47.59359,-54.27349
2022-09-24 09:44:01+00:00,188.0,16.82,195.0,20.76,12.41,47.59359,-54.27349
2022-09-24 09:54:01+00:00,187.0,15.59,193.0,19.71,12.41,47.59359,-54.27349
2022-09-24 10:04:01+00:00,181.0,15.23,195.0,19.39,12.41,47.59359,-54.27349
2022-09-24 10:14:01+00:00,179.0,14.6,179.0,16.7,12.41,47.59359,-54.27349
2022-09-24 10:24:01+00:00,184.0,16.5,191.0,18.87,12.41,47.59359,-54.27349
2022-09-24 10:34:01+00:00,184.0,15.79,195.0,20.58,12.41,47.59359,-54.27349
2022-09-24 10:44:01+00:00,178.0,13.28,189.0,15.9,12.41,47.59359,-54.27349
2022-09-24 10:54:01+00:00,177.0,12.76,177.0,14.99,12.41,47.59359,-54.27349
2022-09-24 11:04:01+00:00,181.0,14.72,195.0,20.2,12.41,47.59359,-54.27349
2022-09-24 11:14:01+00:00,182.0,16.0,192.0,19.32,13.6,47.59359,-54.27349
2022-09-24 11:24:01+00:00,188.0,16.27,196.0,18.38,13.6,47.59359,-54.27349
2022-09-24 11:34:01+00:00,186.0,16.43,197.0,20.12,13.6,47.59359,-54.27349
2022-09-24 11:44:01+00:00,182.0,16.4,198.0,18.43,13.6,47.59359,-54.27349
2022-09-24 11:54:01+00:00,180.0,14.29,180.0,17.28,13.6,47.59359,-54.27349
2022-09-24 12:04:01+00:00,178.0,15.09,175.0,17.15,13.6,47.59359,-54.27349
2022-09-24 12:14:00+00:00,181.0,16.56,177.0,20.72,14.32,47.59359,-54.27349
2022-09-24 12:24:00+00:00,181.0,18.36,183.0,20.88,14.32,47.59359,-54.27349
2022-09-24 12:34:00+00:00,183.0,14.32,180.0,18.02,14.32,47.59359,-54.27349
2022-09-24 12:44:00+00:00,182.0,16.53,185.0,20.75,14.32,47.59359,-54.27349
2022-09-24 12:54:00+00:00,180.0,15.98,192.0,18.26,14.32,47.59359,-54.27349
2022-09-24 13:04:00+00:00,182.0,16.35,192.0,19.7,14.32,47.59359,-54.27349
2022-09-24 13:14:00+00:00,183.0,16.16,179.0,18.67,14.32,47.59359,-54.27349
2022-09-24 13:24:00+00:00,184.0,15.53,191.0,20.27,14.32,47.59359,-54.27349
2022-09-24 13:34:00+00:00,187.0,14.49,178.0,17.03,14.32,47.59359,-54.27349
2022-09-24 13:44:00+00:00,181.0,14.37,183.0,16.42,14.32,47.59359,-54.27349
2022-09-24 13:54:00+00:00,187.0,13.47,191.0,17.14,14.32,47.59359,-54.27349
2022-09-24 14:04:00+00:00,182.0,14.97,187.0,20.11,14.32,47.59359,-54.27349
2022-09-24 15:14:01+00:00,184.0,18.9,182.0,22.34,13.53,47.59359,-54.27349
2022-09-24 15:24:01+00:00,182.0,16.06,192.0,19.15,13.53,47.59359,-54.27349
2022-09-24 15:34:01+00:00,181.0,17.22,180.0,20.84,13.53,47.59359,-54.27349
2022-09-24 15:44:01+00:00,188.0,18.65,195.0,21.2,13.53,47.59359,-54.27349
2022-09-24 15:54:01+00:00,193.0,18.98,192.0,23.08,13.53,47.59359,-54.27349
2022-09-24 16:04:01+00:00,193.0,20.37,194.0,24.38,13.53,47.59359,-54.27349
2022-09-24 16:14:01+00:00,195.0,17.97,197.0,23.72,13.84,47.59359,-54.27349
2022-09-24 16:24:01+00:00,193.0,18.7,192.0,23.41,13.84,47.59359,-54.27349
2022-09-24 16:34:01+00:00,191.0,17.65,189.0,22.65,13.84,47.59359,-54.27349
2022-09-24 16:44:01+00:00,191.0,20.32,192.0,22.86,13.84,47.59359,-54.27349
2022-09-24 16:54:01+00:00,187.0,17.21,193.0,19.02,13.84,47.59359,-54.27349
2022-09-24 17:04:01+00:00,190.0,16.53,193.0,19.13,13.84,47.59359,-54.27349
2022-09-24 17:14:01+00:00,186.0,17.47,188.0,20.41,13.53,47.59359,-54.27349
2022-09-24 17:24:01+00:00,186.0,20.32,185.0,22.87,13.53,47.59359,-54.27349
2022-09-24 17:34:01+00:00,189.0,15.57,190.0,18.79,13.53,47.59359,-54.27349
2022-09-24 17:44:01+00:00,188.0,20.01,188.0,24.83,13.53,47.59359,-54.27349
2022-09-24 17:54:01+00:00,190.0,19.14,194.0,22.76,13.53,47.59359,-54.27349
2022-09-24 18:04:01+00:00,194.0,17.02,200.0,19.81,13.53,47.59359,-54.27349
2022-09-24 18:14:00+00:00,194.0,18.93,194.0,21.29,14.08,47.59359,-54.27349
2022-09-24 18:24:00+00:00,195.0,18.57,191.0,24.78,14.08,47.59359,-54.27349
2022-09-24 18:34:00+00:00,196.0,18.04,204.0,21.35,14.08,47.59359,-54.27349
2022-09-24 18:44:00+00:00,198.0,17.11,201.0,19.03,14.08,47.59359,-54.27349
2022-09-24 18:54:00+00:00,196.0,16.18,198.0,18.88,14.08,47.59359,-54.27349
2022-09-24 19:04:00+00:00,193.0,17.3,189.0,19.6,14.08,47.59359,-54.27349
2022-09-24 19:14:01+00:00,197.0,18.03,206.0,22.33,13.84,47.59359,-54.27349
2022-09-24 19:24:01+00:00,196.0,20.12,189.0,23.48,13.84,47.59359,-54.27349
2022-09-24 19:34:01+00:00,195.0,19.71,193.0,23.98,13.84,47.59359,-54.27349
2022-09-24 19:44:01+00:00,192.0,15.7,195.0,17.75,13.84,47.59359,-54.27349
2022-09-24 19:54:01+00:00,193.0,17.17,197.0,21.88,13.84,47.59359,-54.27349
2022-09-24 20:04:01+00:00,192.0,17.36,191.0,23.45,13.84,47.59359,-54.27349
2022-09-24 20:14:00+00:00,193.0,16.25,193.0,19.77,13.76,47.59359,-54.27349
2022-09-24 20:24:00+00:00,195.0,17.34,196.0,19.48,13.76,47.59359,-54.27349
2022-09-24 20:34:00+00:00,197.0,16.77,198.0,19.52,13.76,47.59359,-54.27349
2022-09-24 20:44:00+00:00,197.0,15.8,199.0,18.2,13.76,47.59359,-54.27349
2022-09-24 20:54:00+00:00,193.0,15.43,185.0,19.9,13.76,47.59359,-54.27349
2022-09-24 21:04:00+00:00,194.0,14.97,196.0,18.27,13.76,47.59359,-54.27349
2022-09-24 21:14:00+00:00,192.0,15.75,194.0,18.04,13.13,47.59359,-54.27349
2022-09-24 21:24:00+00:00,194.0,16.38,196.0,18.92,13.13,47.59359,-54.27349
2022-09-24 21:34:00+00:00,195.0,14.96,195.0,17.45,13.13,47.59359,-54.27349
2022-09-24 21:44:00+00:00,198.0,15.37,202.0,19.16,13.13,47.59359,-54.27349
2022-09-24 21:54:00+00:00,201.0,15.68,205.0,20.88,13.13,47.59359,-54.27349
2022-09-24 22:04:00+00:00,195.0,14.83,198.0,17.64,13.13,47.59359,-54.27349
2022-09-24 22:14:01+00:00,192.0,18.11,204.0,20.82,12.65,47.59359,-54.27349
2022-09-24 22:24:01+00:00,195.0,18.62,197.0,21.92,12.65,47.59359,-54.27349
2022-09-24 22:34:01+00:00,200.0,18.41,205.0,22.01,12.65,47.59359,-54.27349
2022-09-24 22:44:01+00:00,194.0,18.4,198.0,21.26,12.65,47.59359,-54.27349
2022-09-24 22:54:01+00:00,203.0,18.27,204.0,21.97,12.65,47.59359,-54.27349
2022-09-24 23:04:01+00:00,208.0,15.65,208.0,19.77,12.65,47.59359,-54.27349
2022-09-24 23:14:00+00:00,206.0,15.79,209.0,18.45,12.57,47.59359,-54.27349
2022-09-24 23:24:00+00:00,209.0,14.06,212.0,17.56,12.57,47.59359,-54.27349
2022-09-24 23:34:00+00:00,211.0,11.82,212.0,13.34,12.57,47.59359,-54.27349
2022-09-24 23:44:00+00:00,211.0,13.86,211.0,16.02,12.57,47.59359,-54.27349
2022-09-24 23:54:00+00:00,209.0,14.48,208.0,16.99,12.57,47.59359,-54.27349
